Location: Mountain View
(37.3861°N, 122.0839°W)
Time: 11:05:51
(UTC-07:00)

Tiangong - Pass Details

Date: 16 May 2026
Orbit: 380 x 392 km, 41.5° (Epoch: 10 June)

Event Time Altitude Azimuth Distance (km) Brightness Sun altitude
Exits shadow 03:31:35 18° 96° (E) 1,017 0.3 -23.7°
Drops below altitude 10° 03:32:35 10° 100° (E) 1,407 1.0 -23.6°
Sets 03:34:39 0° 103° (ESE) 2,256 2.1 -23.4°
